1515351600.53,50368,10.06,74016.5,-3.61,-15.95,-16.79,0,*5D
1515351601.79,50369,10.06,74016.0,-3.59,-15.89,-16.75,0,*56
1515351603.08,50370,10.06,74014.5,-3.59,-15.85,-16.65,0,*53
1515351604.34,50371,10.06,74014.0,-3.59,-15.85,-16.75,0,*53
1515351605.58,50372,10.06,74018.3,-3.59,-15.95,-16.83,0,*58
1515351606.81,50373,10.06,74016.3,-3.59,-16.03,-16.83,0,*55
1515351608.05,50374,10.06,74016.5,-3.59,-15.95,-16.83,0,*5E
1515351609.29,50375,10.06,74020.3,-3.59,-16.03,-16.79,0,*56
1515351610.5,50376,10.06,74018.3,-3.61,-16.03,-16.83,0,*5B
1515351611.73,50377,10.06,74018.0,-3.59,-15.95,-16.83,0,*5D
1515351612.97,50378,10.06,74022.3,-3.59,-16.03,-16.83,0,*5E
1515351614.21,50379,10.06,74016.5,-3.59,-15.95,-16.83,0,*53
1515351615.47,50380,10.06,74018.5,-3.59,-16.09,-16.93,0,*52
1515351616.7,50381,10.06,74018.8,-3.59,-16.03,-16.93,0,*59
1515351617.96,50382,10.06,74020.0,-3.61,-16.09,-17.03,0,*53
1515351619.19,50383,10.06,74022.0,-3.59,-16.03,-16.93,0,*5B
1515351620.45,50384,10.06,74016.8,-3.59,-16.09,-16.93,0,*56
1515351621.75,50385,10.06,74020.5,-3.59,-16.09,-17.07,0,*5B
1515351623.02,50386,10.06,74018.8,-3.59,-16.03,-17.07,0,*52
1515351624.31,50387,10.06,74020.8,-3.59,-16.09,-17.11,0,*5E
1515351625.57,50388,10.06,74020.0,-3.61,-16.17,-17.17,0,*53
1515351626.86,50389,10.06,74020.3,-3.59,-16.17,-17.21,0,*5C
1515351628.11,50390,10.06,74020.0,-3.61,-16.23,-17.25,0,*5C
1515351629.4,50391,10.06,74022.0,-3.59,-16.17,-17.21,0,*55
1515351630.68,50392,10.06,74020.5,-3.59,-16.17,-17.25,0,*52
1515351631.97,50393,10.06,74020.0,-3.59,-16.17,-17.21,0,*57
1515351633.23,50394,10.06,74020.8,-3.61,-16.23,-17.25,0,*58
1515351634.46,50395,10.06,74020.5,-3.61,-16.23,-17.31,0,*5C
1515351635.72,50396,10.06,74018.0,-3.61,-16.23,-17.25,0,*5A
1515351636.98,50397,10.06,74018.3,-3.61,-16.09,-17.25,0,*53
1515351638.27,50398,10.06,74016.8,-3.59,-16.09,-17.25,0,*57
1515351639.51,50399,10.06,74020.0,-3.61,-16.09,-17.31,0,*58
1515351640.76,50400,10.06,74022.3,-3.59,-16.03,-17.25,0,*5B
1515351642.0,50401,10.06,74020.5,-3.61,-16.13,-17.31,0,*55
1515351643.29,50402,10.06,74016.8,-3.59,-16.17,-17.41,0,*5E
1515351644.55,50403,10.06,74020.8,-3.61,-16.27,-17.55,0,*52
1515351645.81,50404,10.06,74022.0,-3.61,-16.23,-17.55,0,*51
1515351647.09,50405,10.06,74022.8,-3.59,-16.23,-17.55,0,*5B
1515351648.35,50406,10.06,74024.0,-3.61,-16.27,-17.59,0,*5B
1515351649.61,50407,10.06,74018.3,-3.61,-16.27,-17.59,0,*5A
1515351650.85,50408,10.06,74024.5,-3.61,-16.27,-17.69,0,*56
1515351652.08,50409,10.06,74020.5,-3.61,-16.23,-17.69,0,*53
1515351653.32,50410,10.06,74020.3,-3.61,-16.27,-17.69,0,*5F
1515351654.55,50411,10.06,74020.5,-3.61,-16.27,-17.69,0,*5E
1515351655.79,50412,10.06,74020.0,-3.61,-16.23,-17.73,0,*52
1515351657.04,50413,10.06,74024.8,-3.65,-16.31,-17.79,0,*5E
1515351658.28,50414,10.06,74024.8,-3.65,-16.27,-17.73,0,*54
1515351659.54,50415,10.06,74020.5,-3.65,-16.17,-17.79,0,*5C
1515351660.83,50416,10.06,74020.8,-3.67,-16.13,-17.79,0,*59
1515351662.12,50417,10.06,74020.5,-3.67,-16.17,-17.79,0,*5C
1515351663.38,50418,10.06,74022.0,-3.65,-16.31,-17.93,0,*51
1515351664.66,50419,10.06,74022.0,-3.67,-16.13,-17.93,0,*52
1515351665.95,50420,10.06,74020.8,-3.67,-16.17,-17.93,0,*5C
1515351667.21,50421,10.06,74020.3,-3.65,-16.27,-17.93,0,*5C
1515351668.47,50422,10.06,74016.8,-3.65,-16.17,-17.93,0,*5C
1515351669.73,50423,10.06,74020.8,-3.65,-16.17,-17.93,0,*5D
1515351670.99,50424,10.06,74018.3,-3.65,-16.17,-17.93,0,*5A
1515351672.26,50425,10.06,74018.8,-3.65,-16.17,-17.97,0,*5F
1515351673.5,50426,10.06,74018.5,-3.65,-16.17,-18.07,0,*5A
1515351674.74,50427,10.06,74022.3,-3.65,-16.13,-18.11,0,*58
1515351675.98,50428,10.06,74022.0,-3.65,-16.27,-18.11,0,*50
1515351677.19,50429,10.06,74018.8,-3.65,-15.99,-18.07,0,*50
1515351678.43,50430,10.06,74022.0,-3.65,-16.27,-18.11,0,*59
1515351679.69,50431,10.06,74018.3,-3.67,-16.17,-18.21,0,*5A
1515351680.92,50432,10.06,74020.5,-3.65,-16.27,-18.25,0,*5C
1515351682.19,50433,10.06,74022.5,-3.65,-16.27,-18.35,0,*5C
1515351683.4,50434,10.06,74022.0,-3.65,-16.41,-18.41,0,*58
1515351684.63,50435,10.06,74022.0,-3.65,-16.31,-18.49,0,*56
1515351685.87,50436,10.06,74022.5,-3.65,-16.41,-18.55,0,*5F
1515351687.11,50437,10.06,74026.3,-3.67,-16.41,-18.65,0,*5F
1515351688.32,50438,10.06,74022.5,-3.65,-16.41,-18.69,0,*5E
1515351689.54,50439,10.06,74026.8,-3.65,-16.41,-18.65,0,*53
1515351690.77,50440,10.06,74026.8,-3.65,-16.31,-18.65,0,*5A
1515351691.98,50441,10.06,74024.8,-3.65,-16.45,-18.79,0,*55
1515351693.2,50442,10.06,74022.8,-3.65,-16.31,-18.83,0,*50
1515351694.41,50443,10.06,74024.3,-3.65,-16.45,-18.83,0,*52
1515351695.62,50444,10.06,74022.5,-3.65,-16.45,-18.83,0,*55
1515351696.85,50445,10.06,74024.8,-3.67,-16.41,-18.83,0,*52
1515351698.11,50446,10.06,74028.3,-3.67,-16.41,-18.89,0,*5B
1515351699.32,50447,10.06,74024.3,-3.65,-16.41,-18.99,0,*59
1515351700.56,50448,10.06,74022.0,-3.67,-16.45,-18.99,0,*50
1515351701.79,50449,10.06,74020.8,-3.67,-16.41,-18.99,0,*55
1515351703.03,50450,10.06,74022.3,-3.67,-16.45,-19.13,0,*5A
1515351704.27,50451,10.06,74030.5,-3.67,-16.41,-19.03,0,*5E
1515351705.51,50452,10.06,74024.3,-3.67,-16.45,-19.17,0,*5C
1515351706.74,50453,10.06,74028.0,-3.65,-16.45,-19.27,0,*5C
1515351708.01,50454,10.06,74030.3,-3.67,-16.41,-19.31,0,*5A
1515351709.25,50455,10.06,74026.0,-3.67,-16.41,-19.17,0,*5F
1515351710.52,50456,10.06,74024.5,-3.67,-16.45,-19.31,0,*5C
1515351711.78,50457,10.06,74030.8,-3.67,-16.41,-19.31,0,*59
1515351713.05,50458,10.06,74024.8,-3.67,-16.41,-19.31,0,*56
1515351714.31,50459,10.06,74022.3,-3.65,-16.31,-19.41,0,*55
1515351715.58,50460,10.06,74024.0,-3.67,-16.45,-19.57,0,*59
1515351716.84,50461,10.06,74024.5,-3.67,-16.45,-19.61,0,*5D
1515351718.12,50462,10.06,74026.3,-3.67,-16.41,-19.57,0,*5F
1515351719.35,50463,10.06,74024.5,-3.67,-16.45,-19.71,0,*5E
1515351720.6,50464,10.06,74022.5,-3.67,-16.41,-19.71,0,*5D
1515351721.81,50465,10.06,74022.8,-3.65,-16.55,-19.75,0,*5F
1515351723.05,50466,10.06,74022.0,-3.65,-16.41,-19.81,0,*52
1515351724.29,50467,10.06,74022.8,-3.67,-16.59,-19.95,0,*5D
1515351725.51,50468,10.06,74024.5,-3.65,-16.59,-20.09,0,*5F
1515351726.78,50469,10.06,74030.3,-3.67,-16.69,-20.09,0,*5F
1515351728.04,50470,10.06,74026.8,-3.67,-16.69,-20.09,0,*57
1515351729.31,50471,10.06,74024.0,-3.67,-16.55,-20.19,0,*58
1515351730.56,50472,10.06,74026.0,-3.67,-16.55,-20.25,0,*54
1515351731.8,50473,10.06,74024.0,-3.67,-16.59,-20.25,0,*59
1515351733.05,50474,10.06,74026.0,-3.67,-16.75,-20.39,0,*5D
1515351734.32,50475,10.06,74024.5,-3.67,-16.75,-20.53,0,*50
1515351735.59,50476,10.06,74024.8,-3.67,-16.83,-20.53,0,*5A
1515351736.83,50477,10.06,74024.3,-3.67,-16.83,-20.69,0,*52
1515351738.04,50478,10.06,74024.8,-3.69,-16.93,-20.73,0,*59
1515351739.31,50479,10.06,74024.5,-3.67,-16.89,-20.83,0,*52
1515351740.55,50480,10.06,74026.5,-3.71,-16.97,-20.89,0,*56
1515351741.78,50481,10.06,74026.0,-3.69,-16.97,-21.03,0,*5D
1515351743.05,50482,10.06,74030.8,-3.69,-17.07,-21.03,0,*56
1515351744.3,50483,10.06,74026.5,-3.71,-17.07,-21.09,0,*54
1515351745.56,50484,10.06,74026.3,-3.71,-17.07,-21.17,0,*5C
1515351746.83,50485,10.06,74024.8,-3.69,-17.07,-21.23,0,*53
1515351748.07,50486,10.06,74028.5,-3.69,-17.07,-21.39,0,*5B
1515351749.36,50487,10.06,74024.5,-3.71,-17.07,-21.33,0,*59
1515351750.61,50488,10.06,74026.3,-3.71,-17.07,-21.39,0,*5C
1515351751.87,50489,10.06,74022.8,-3.71,-17.11,-21.47,0,*53
1515351753.11,50490,10.06,74022.3,-3.69,-17.21,-21.63,0,*57
1515351754.36,50491,10.06,74024.5,-3.71,-17.25,-21.63,0,*5B
1515351755.6,50492,10.06,74024.3,-3.69,-17.25,-21.63,0,*51
1515351756.85,50493,10.06,74026.0,-3.71,-17.21,-21.63,0,*5D
1515351758.11,50494,10.06,74020.8,-3.71,-17.11,-21.63,0,*59
1515351759.36,50495,10.06,74020.5,-3.71,-17.25,-21.77,0,*5A
1515351760.62,50496,10.06,74024.8,-3.71,-17.35,-21.97,0,*56
1515351761.89,50497,10.06,74024.8,-3.71,-17.41,-22.03,0,*5A
1515351763.15,50498,10.06,74026.5,-3.73,-17.55,-22.07,0,*56
1515351764.41,50499,10.06,74026.0,-3.71,-17.41,-22.03,0,*54
1515351765.67,50500,10.06,74028.3,-3.71,-17.49,-22.17,0,*58
1515351766.93,50501,10.06,74020.0,-3.69,-17.63,-22.31,0,*5C
1515351768.22,50502,10.06,74022.0,-3.73,-17.59,-22.31,0,*5D
1515351769.45,50503,10.06,74024.3,-3.73,-17.69,-22.37,0,*59
1515351770.68,50504,10.06,74028.0,-3.73,-17.69,-22.37,0,*5E
1515351771.92,50505,10.06,74024.8,-3.73,-17.69,-22.63,0,*5E
1515351773.16,50506,10.06,74028.5,-3.73,-17.73,-22.63,0,*56
1515351774.4,50507,10.06,74028.5,-3.73,-17.83,-22.63,0,*58
1515351775.64,50508,10.06,74026.5,-3.73,-17.83,-22.63,0,*57
1515351776.88,50509,10.06,74022.8,-3.73,-17.73,-22.67,0,*5D
1515351778.12,50510,10.06,74026.3,-3.73,-17.87,-22.83,0,*54
1515351779.38,50511,10.06,74024.0,-3.73,-18.01,-22.97,0,*51
1515351780.65,50512,10.06,74028.0,-3.73,-18.07,-23.03,0,*58
1515351781.91,50513,10.06,74030.5,-3.73,-18.17,-23.03,0,*58
1515351783.18,50514,10.06,74028.8,-3.73,-18.21,-23.19,0,*51
1515351784.41,50515,10.06,74030.5,-3.75,-18.21,-23.19,0,*56
1515351785.68,50516,10.06,74026.5,-3.73,-18.21,-23.19,0,*53
1515351786.93,50517,10.06,74028.3,-3.73,-18.21,-23.29,0,*51
1515351788.22,50518,10.06,74030.3,-3.73,-18.31,-23.33,0,*54
1515351789.49,50519,10.06,74026.8,-3.73,-18.35,-23.43,0,*56
1515351790.73,50520,10.06,74030.3,-3.75,-18.49,-23.49,0,*5B
1515351791.96,50521,10.06,74030.5,-3.75,-18.49,-23.49,0,*5A
1515351793.19,50522,10.06,74024.8,-3.75,-18.49,-23.65,0,*57
1515351794.47,50523,10.06,74024.0,-3.73,-18.59,-23.65,0,*51
1515351795.71,50524,10.06,74026.8,-3.73,-18.65,-23.75,0,*58
1515351796.94,50525,10.06,74024.3,-3.73,-18.73,-23.79,0,*52
1515351798.17,50526,10.06,74026.5,-3.75,-18.89,-23.89,0,*5D
1515351799.42,50527,10.06,74024.3,-3.73,-18.89,-23.89,0,*5A
1515351800.68,50528,10.06,74028.0,-3.75,-18.93,-23.99,0,*59
1515351801.91,50529,10.06,74026.5,-3.75,-18.99,-23.99,0,*52
1515351803.17,50530,10.06,74026.3,-3.73,-19.07,-24.11,0,*5D
1515351804.39,50531,10.06,74028.3,-3.75,-19.07,-24.15,0,*5E
1515351805.65,50532,10.06,74030.3,-3.73,-19.07,-24.15,0,*5B
1515351806.89,50533,10.06,74030.0,-3.75,-19.13,-24.25,0,*5A
1515351808.13,50534,10.06,74030.8,-3.73,-19.37,-24.31,0,*58
1515351809.37,50535,10.06,74026.0,-3.75,-19.37,-24.41,0,*58
1515351810.61,50536,10.06,74024.0,-3.73,-19.37,-24.47,0,*5B
1515351811.88,50537,10.06,74024.5,-3.77,-19.57,-24.51,0,*5F
1515351813.11,50538,10.06,74024.5,-3.75,-19.41,-24.47,0,*52
1515351814.32,50539,10.06,74026.3,-3.75,-19.51,-24.57,0,*53
1515351815.52,50540,10.06,74022.5,-3.75,-19.51,-24.57,0,*5D
1515351816.79,50541,10.06,74024.5,-3.77,-19.61,-24.61,0,*58
1515351818.04,50542,10.06,74024.3,-3.77,-19.75,-24.83,0,*52
1515351819.32,50543,10.06,74024.5,-3.77,-19.85,-24.83,0,*5C
1515351820.57,50544,10.06,74028.3,-3.77,-19.85,-24.77,0,*50
1515351821.82,50545,10.06,74028.8,-3.77,-19.75,-24.67,0,*5F
1515351823.08,50546,10.06,74030.8,-3.77,-19.91,-24.83,0,*5C
1515351824.27,50547,10.06,74026.0,-3.79,-20.05,-24.93,0,*55
1515351825.53,50548,10.06,74024.5,-3.77,-19.95,-24.83,0,*56
1515351826.79,50549,10.06,74026.3,-3.77,-19.85,-24.77,0,*5D
1515351828.04,50550,10.06,74022.3,-3.77,-19.91,-24.67,0,*51
1515351829.27,50551,10.06,74022.0,-3.77,-19.95,-24.93,0,*5F
1515351830.52,50552,10.06,74026.8,-3.77,-20.09,-24.83,0,*52
1515351831.75,50553,10.06,74022.0,-3.77,-19.91,-24.77,0,*53
1515351833.03,50554,10.06,74024.8,-3.77,-20.19,-24.83,0,*55
1515351834.28,50555,10.06,74026.0,-3.77,-20.19,-24.93,0,*55
1515351835.53,50556,10.06,74022.5,-3.77,-20.25,-25.03,0,*51
1515351836.79,50557,10.06,74026.0,-3.77,-20.39,-25.03,0,*5D
1515351838.07,50558,10.06,74028.3,-3.77,-20.53,-25.29,0,*56
1515351839.31,50559,10.06,74030.5,-3.75,-20.63,-25.29,0,*56
1515351840.52,50560,10.06,74026.8,-3.75,-20.63,-25.23,0,*56
1515351841.72,50561,10.06,74024.0,-3.75,-20.73,-25.39,0,*5D
1515351842.98,50562,10.06,74026.8,-3.75,-20.79,-25.45,0,*5F
1515351844.21,50563,10.06,74028.0,-3.75,-20.79,-25.39,0,*55
1515351845.44,50564,10.06,74024.8,-3.75,-20.89,-25.45,0,*56
1515351846.68,50565,10.06,74026.3,-3.75,-20.79,-25.39,0,*53
1515351847.91,50566,10.06,74024.8,-3.75,-20.79,-25.39,0,*50
1515351849.14,50567,10.06,74024.8,-3.75,-21.09,-25.45,0,*5C
1515351850.38,50568,10.06,74024.8,-3.77,-21.17,-25.61,0,*58
1515351851.64,50569,10.06,74024.5,-3.77,-21.27,-25.61,0,*5A
1515351852.91,50570,10.06,74022.3,-3.77,-21.27,-25.61,0,*52
1515351854.17,50571,10.06,74024.8,-3.77,-21.27,-25.65,0,*57
1515351855.4,50572,10.06,74024.8,-3.77,-21.43,-25.65,0,*56
1515351856.64,50573,10.06,74022.3,-3.79,-21.47,-25.75,0,*5C
1515351857.92,50574,10.06,74024.0,-3.77,-21.57,-25.81,0,*5F
1515351859.15,50575,10.06,74024.0,-3.79,-21.63,-25.81,0,*57
1515351860.43,50576,10.06,74026.3,-3.77,-21.57,-25.81,0,*5D
1515351861.67,50577,10.06,74026.3,-3.79,-21.73,-25.81,0,*54
1515351862.9,50578,10.06,74024.5,-3.77,-21.77,-25.91,0,*50
1515351864.14,50579,10.06,74028.0,-3.79,-21.93,-25.97,0,*53
1515351865.4,50580,10.06,74026.8,-3.79,-21.87,-25.97,0,*50
1515351866.63,50581,10.06,74028.3,-3.79,-21.97,-25.91,0,*56
1515351867.84,50582,10.06,74024.5,-3.79,-21.93,-25.91,0,*51
1515351869.1,50583,10.06,74024.3,-3.79,-21.97,-25.97,0,*52
1515351870.33,50584,10.06,74026.5,-3.79,-22.11,-25.97,0,*58
1515351871.55,50585,10.06,74028.8,-3.79,-22.11,-26.03,0,*57
1515351872.78,50586,10.06,74024.0,-3.79,-22.21,-26.03,0,*57
1515351874.02,50587,10.06,74028.5,-3.79,-22.21,-26.03,0,*56
1515351875.29,50588,10.06,74032.5,-3.79,-22.21,-25.97,0,*57
1515351876.52,50589,10.06,74028.0,-3.79,-22.21,-25.91,0,*50
1515351877.75,50590,10.06,74028.8,-3.79,-22.11,-25.81,0,*5A
1515351878.98,50591,10.06,74030.0,-3.79,-22.27,-25.97,0,*59
1515351880.21,50592,10.06,74030.8,-3.79,-22.41,-26.17,0,*51
1515351881.43,50593,10.06,74030.8,-3.79,-22.41,-26.03,0,*55
1515351882.66,50594,10.06,74030.3,-3.79,-22.53,-26.17,0,*54
1515351883.9,50595,10.06,74034.3,-3.79,-22.57,-26.17,0,*51
1515351885.12,50596,10.06,74032.3,-3.79,-22.53,-26.03,0,*53
1515351886.35,50597,10.06,74030.8,-3.79,-22.57,-26.17,0,*53
1515351887.56,50598,10.06,74030.8,-3.79,-22.67,-26.03,0,*5A
1515351888.82,50599,10.06,74026.5,-3.79,-22.73,-26.29,0,*56
1515351890.03,50600,10.06,74026.0,-3.79,-22.67,-26.03,0,*58
1515351891.29,50601,10.06,74026.3,-3.79,-22.73,-26.17,0,*59
1515351892.52,50602,10.06,74026.0,-3.79,-22.87,-26.17,0,*51
1515351893.76,50603,10.06,74026.5,-3.81,-23.09,-26.39,0,*5C
1515351895.0,50604,10.06,74024.3,-3.81,-22.97,-26.23,0,*56
1515351896.23,50605,10.06,74026.3,-3.81,-22.97,-26.23,0,*57
1515351897.47,50606,10.06,74026.5,-3.81,-23.13,-26.23,0,*59
1515351898.73,50607,10.06,74026.5,-3.79,-23.03,-26.29,0,*54
1515351899.97,50608,10.06,74022.3,-3.79,-23.03,-26.03,0,*53
1515351901.2,50609,10.06,74024.5,-3.83,-23.23,-26.23,0,*57
1515351902.48,50610,10.06,74020.0,-3.81,-23.23,-26.33,0,*5C
1515351903.77,50611,10.06,74024.8,-3.81,-23.29,-26.33,0,*57
1515351905.06,50612,10.06,74026.8,-3.81,-23.29,-26.33,0,*54
1515351906.35,50613,10.06,74024.0,-3.81,-23.29,-26.33,0,*55
1515351907.55,50614,10.06,74024.8,-3.83,-23.39,-26.23,0,*50
1515351908.79,50615,10.06,74026.8,-3.81,-23.43,-26.39,0,*55
1515351910.04,50616,10.06,74026.8,-3.81,-23.43,-26.39,0,*56
1515351911.26,50617,10.06,74026.8,-3.81,-23.39,-26.23,0,*51
1515351912.49,50618,10.06,74026.8,-3.81,-23.39,-26.23,0,*5E
1515351913.75,50619,10.06,74022.0,-3.81,-23.29,-26.07,0,*58
1515351914.99,50620,10.06,74016.0,-3.81,-23.43,-26.23,0,*58
1515351916.25,50621,10.06,74026.5,-3.81,-23.53,-26.07,0,*5E
1515351917.5,50622,10.06,74022.8,-3.81,-23.75,-26.39,0,*54
1515351918.72,50623,10.06,74024.3,-3.83,-23.75,-26.39,0,*57
1515351919.98,50624,10.06,74024.8,-3.81,-23.85,-26.39,0,*5D
1515351921.22,50625,10.06,74028.5,-3.81,-23.89,-26.39,0,*50
1515351922.48,50626,10.06,74030.5,-3.81,-24.05,-26.55,0,*5A
1515351923.77,50627,10.06,74030.5,-3.81,-24.21,-26.71,0,*5B
1515351925.01,50628,10.06,74024.5,-3.83,-24.11,-26.65,0,*50
1515351926.27,50629,10.06,74026.5,-3.81,-24.21,-26.65,0,*50
1515351927.51,50630,10.06,74024.5,-3.83,-24.21,-26.65,0,*5A
1515351928.78,50631,10.06,74024.8,-3.81,-24.21,-26.65,0,*59
1515351930.02,50632,10.06,74026.8,-3.83,-24.21,-26.65,0,*58
1515351931.28,50633,10.06,74024.8,-3.81,-24.25,-26.65,0,*5F
1515351932.5,50634,10.06,74026.3,-3.83,-24.35,-26.65,0,*5B
1515351933.76,50635,10.06,74030.0,-3.83,-24.41,-26.55,0,*5A
1515351935.02,50636,10.06,74024.0,-3.87,-24.41,-26.77,0,*5D
1515351936.26,50637,10.06,74026.3,-3.87,-24.41,-26.61,0,*5B
1515351937.52,50638,10.06,74024.0,-3.83,-24.41,-26.55,0,*57
1515351938.73,50639,10.06,74026.3,-3.83,-24.51,-26.49,0,*5A
1515351939.95,50640,10.06,74020.0,-3.83,-24.51,-26.65,0,*5A
1515351941.16,50641,10.06,74024.3,-3.87,-24.57,-26.61,0,*5D
1515351942.39,50642,10.06,74026.5,-3.87,-24.61,-26.55,0,*5C
1515351943.6,50643,10.06,74024.8,-3.87,-24.77,-26.61,0,*5D
1515351944.84,50644,10.06,74028.0,-3.87,-24.71,-26.45,0,*5A
1515351946.08,50645,10.06,74024.0,-3.87,-24.71,-26.61,0,*5D
1515351947.32,50646,10.06,74024.0,-3.89,-24.77,-26.45,0,*50
1515351948.56,50647,10.06,74022.5,-3.89,-24.77,-26.49,0,*5D
1515351949.82,50648,10.06,74026.3,-3.89,-24.83,-26.65,0,*57
1515351951.09,50649,10.06,74024.3,-3.89,-24.83,-26.61,0,*52
1515351952.35,50650,10.06,74026.0,-3.89,-24.83,-26.45,0,*5C
1515351953.58,50651,10.06,74026.3,-3.89,-24.93,-26.49,0,*50
1515351954.77,50652,10.06,74024.0,-3.87,-24.93,-26.45,0,*51
1515351955.97,50653,10.06,74024.0,-3.87,-24.93,-26.45,0,*50
1515351957.2,50654,10.06,74028.0,-3.89,-24.93,-26.45,0,*59
1515351958.43,50655,10.06,74024.3,-3.89,-24.97,-26.45,0,*5C
1515351959.67,50656,10.06,74026.5,-3.87,-24.87,-26.39,0,*5B
1515351960.92,50657,10.06,74026.0,-3.89,-24.93,-26.17,0,*5D
1515351962.15,50658,10.06,74024.0,-3.87,-24.93,-26.29,0,*51
1515351963.41,50659,10.06,74024.5,-3.89,-25.09,-26.33,0,*57
1515351964.68,50660,10.06,74024.5,-3.89,-25.09,-26.33,0,*5D
1515351965.94,50661,10.06,74024.3,-3.89,-25.13,-26.17,0,*51
1515351967.2,50662,10.06,74024.3,-3.89,-25.13,-26.17,0,*52
1515351968.43,50663,10.06,74026.8,-3.87,-25.23,-26.33,0,*58
1515351969.67,50664,10.06,74026.8,-3.87,-25.23,-26.29,0,*54
1515351970.92,50665,10.06,74026.3,-3.89,-25.29,-26.45,0,*5B
1515351972.18,50666,10.06,74026.5,-3.89,-25.29,-26.45,0,*58
1515351973.47,50667,10.06,74028.5,-3.89,-25.29,-26.33,0,*58
1515351974.73,50668,10.06,74026.5,-3.89,-25.35,-26.33,0,*5A
1515351975.99,50669,10.06,74026.8,-3.87,-25.29,-26.13,0,*5A
1515351977.25,50670,10.06,74028.5,-3.89,-25.35,-26.33,0,*53
1515351978.48,50671,10.06,74028.8,-3.89,-25.35,-26.07,0,*55
1515351979.72,50672,10.06,74028.0,-3.87,-25.29,-26.03,0,*51
1515351981.0,50673,10.06,74024.8,-3.89,-25.45,-26.13,0,*55
1515351982.28,50674,10.06,74028.0,-3.89,-25.45,-26.17,0,*56
1515351983.57,50675,10.06,74028.5,-3.89,-25.45,-26.13,0,*53
1515351984.79,50676,10.06,74028.3,-3.91,-25.45,-25.91,0,*50
1515351986.0,50677,10.06,74026.8,-3.91,-25.35,-25.91,0,*56
1515351987.23,50678,10.06,74028.0,-3.91,-25.35,-25.81,0,*58
1515351988.45,50679,10.06,74028.3,-3.91,-25.35,-25.81,0,*59
1515351989.68,50680,10.06,74026.8,-3.91,-25.45,-25.91,0,*59
1515351990.89,50681,10.06,74026.3,-3.91,-25.49,-25.91,0,*54
1515351992.1,50682,10.06,74028.0,-3.91,-25.49,-25.91,0,*57
1515351993.34,50683,10.06,74026.0,-3.89,-25.49,-25.91,0,*5F
1515351994.57,50684,10.06,74024.3,-3.91,-25.61,-25.75,0,*51
1515351995.81,50685,10.06,74026.3,-3.91,-25.61,-25.81,0,*5B
1515351997.04,50686,10.06,74026.3,-3.91,-25.61,-25.81,0,*58
1515351998.33,50687,10.06,74026.5,-3.93,-25.81,-25.97,0,*52
1515351999.59,50688,10.06,74026.5,-3.91,-25.75,-25.75,0,*58
1515352000.83,50689,10.06,74024.5,-3.91,-25.65,-25.75,0,*58
1515352002.1,50690,10.06,74024.0,-3.91,-25.75,-25.75,0,*51
1515352003.39,50691,10.06,74026.8,-3.93,-25.81,-25.71,0,*5D
1515352004.66,50692,10.06,74026.3,-3.93,-25.71,-25.65,0,*54
1515352005.92,50693,10.06,74026.0,-3.93,-25.65,-25.55,0,*53
1515352007.15,50694,10.06,74022.0,-3.91,-25.61,-25.45,0,*53
1515352008.36,50695,10.06,74022.8,-3.91,-25.49,-25.35,0,*5F
1515352009.63,50696,10.06,74024.0,-3.93,-25.55,-25.35,0,*53
1515352010.83,50697,10.06,74026.0,-3.91,-25.61,-25.35,0,*57
1515352012.07,50698,10.06,74024.5,-3.91,-25.49,-25.29,0,*5F
1515352013.28,50699,10.06,74020.0,-3.91,-25.61,-25.35,0,*59
1515352014.55,50700,10.06,74020.5,-3.93,-25.71,-25.39,0,*57
1515352015.78,50701,10.06,74024.5,-3.91,-25.65,-25.29,0,*50
1515352017.04,50702,10.06,74022.0,-3.91,-25.75,-25.29,0,*52
1515352018.28,50703,10.06,74022.3,-3.93,-25.87,-25.39,0,*5D
1515352019.49,50704,10.06,74020.0,-3.91,-25.87,-25.39,0,*58
1515352020.73,50705,10.06,74022.5,-3.91,-25.75,-25.19,0,*56
1515352021.99,50706,10.06,74022.5,-3.93,-25.81,-25.23,0,*55
1515352023.24,50707,10.06,74022.5,-3.93,-25.81,-25.19,0,*5D
1515352024.51,50708,10.06,74020.3,-3.93,-25.81,-25.13,0,*58
1515352025.77,50709,10.06,74016.3,-3.93,-25.71,-25.13,0,*56
1515352027.04,50710,10.06,74018.8,-3.93,-25.71,-25.13,0,*5E
1515352028.33,50711,10.06,74016.3,-3.93,-25.71,-25.03,0,*5E
1515352029.57,50712,10.06,74014.3,-3.91,-25.49,-24.87,0,*59
1515352030.83,50713,10.06,74012.5,-3.93,-25.39,-24.71,0,*54
1515352032.09,50714,10.06,74014.3,-3.93,-25.49,-24.71,0,*54
1515352033.35,50715,10.06,74012.8,-3.93,-25.39,-24.71,0,*52
1515352034.61,50716,10.06,74016.5,-3.93,-25.49,-24.67,0,*51
1515352035.84,50717,10.06,74018.8,-3.91,-25.39,-24.41,0,*51
1515352037.1,50718,10.06,74020.0,-3.93,-25.55,-24.57,0,*51
1515352038.36,50719,10.06,74022.8,-3.93,-25.55,-24.57,0,*50
1515352039.6,50720,10.06,74018.0,-3.93,-25.65,-24.51,0,*5F
1515352040.81,50721,10.06,74022.3,-3.91,-25.49,-24.51,0,*52
1515352042.07,50722,10.06,74022.5,-3.93,-25.39,-24.41,0,*55
1515352043.3,50723,10.06,74022.3,-3.93,-25.65,-24.57,0,*5A
1515352044.53,50724,10.06,74022.3,-3.91,-25.65,-24.67,0,*5C
1515352045.79,50725,10.06,74020.5,-3.93,-25.71,-24.51,0,*5F
1515352047.0,50726,10.06,74020.3,-3.91,-25.65,-24.47,0,*5C
1515352048.2,50727,10.06,74018.5,-3.91,-25.65,-24.51,0,*5A
1515352049.41,50728,10.06,74022.0,-3.91,-25.61,-24.35,0,*53
1515352050.61,50729,10.06,74020.5,-3.91,-25.65,-24.35,0,*56
1515352051.87,50730,10.06,74018.8,-3.93,-25.81,-24.47,0,*53
1515352053.08,50731,10.06,74018.3,-3.91,-25.65,-24.35,0,*5F
1515352054.28,50732,10.06,74020.3,-3.91,-25.65,-24.31,0,*58
1515352055.57,50733,10.06,74018.8,-3.93,-25.71,-24.41,0,*59
1515352056.8,50734,10.06,74022.3,-3.93,-25.65,-24.35,0,*58
1515352058.08,50735,10.06,74022.5,-3.93,-25.55,-24.15,0,*58
1515352059.35,50736,10.06,74018.3,-3.93,-25.55,-24.05,0,*5A
1515352060.64,50737,10.06,74022.5,-3.93,-25.55,-24.21,0,*5D
1515352061.86,50738,10.06,74022.5,-3.91,-25.35,-23.95,0,*5E
1515352063.11,50739,10.06,74022.5,-3.91,-25.29,-23.69,0,*51
1515352064.37,50740,10.06,74024.0,-3.93,-25.35,-23.85,0,*52
1515352065.59,50741,10.06,74022.0,-3.91,-25.19,-23.65,0,*51
1515352066.82,50742,10.06,74022.8,-3.93,-25.19,-23.59,0,*5F
1515352068.02,50743,10.06,74022.8,-3.91,-25.19,-23.59,0,*5C
1515352069.25,50744,10.06,74018.0,-3.93,-25.23,-23.59,0,*50
1515352070.5,50745,10.06,74022.0,-3.93,-25.35,-23.69,0,*55
1515352071.75,50746,10.06,74024.8,-3.93,-25.35,-23.69,0,*56
1515352072.98,50747,10.06,74024.5,-3.91,-25.19,-23.65,0,*57
1515352074.18,50748,10.06,74024.8,-3.95,-25.23,-23.59,0,*5A
1515352075.41,50749,10.06,74024.0,-3.93,-25.23,-23.59,0,*5D
1515352076.63,50750,10.06,74024.5,-3.91,-25.19,-23.65,0,*51
1515352077.86,50751,10.06,74026.3,-3.91,-25.19,-23.49,0,*5E
1515352079.09,50752,10.06,74024.8,-3.93,-25.35,-23.59,0,*50
1515352080.32,50753,10.06,74024.3,-3.95,-25.23,-23.53,0,*5A
1515352081.55,50754,10.06,74024.3,-3.93,-25.23,-23.43,0,*5A
1515352082.76,50755,10.06,74022.5,-3.95,-25.13,-23.39,0,*53
1515352083.99,50756,10.06,74028.8,-3.95,-24.97,-23.29,0,*5C
1515352085.24,50757,10.06,74022.8,-3.95,-25.03,-23.29,0,*51
1515352086.48,50758,10.06,74024.0,-3.95,-24.97,-23.23,0,*58
1515352087.74,50759,10.06,74026.0,-3.93,-24.97,-23.23,0,*5F
1515352088.97,50760,10.06,74024.8,-3.93,-24.97,-23.13,0,*56
1515352090.18,50761,10.06,74024.0,-3.95,-24.97,-23.13,0,*51
1515352091.39,50762,10.06,74028.0,-3.95,-24.97,-23.13,0,*52
1515352092.64,50763,10.06,74026.8,-3.95,-24.71,-22.93,0,*52
1515352093.88,50764,10.06,74020.5,-3.95,-24.83,-22.93,0,*58
1515352095.14,50765,10.06,74020.0,-3.95,-24.67,-22.77,0,*59
1515352096.36,50766,10.06,74022.8,-3.95,-24.51,-22.63,0,*5A
1515352097.63,50767,10.06,74026.5,-3.95,-24.41,-22.73,0,*5B